Location: Sabalos
(43.2860°N, 0.1414°E)
Time: 10:52:02
(UTC+00:00)

Cosmos 1602 Rocket - Pass Details

Date: 05 July 2020
Orbit: 604 x 633 km, 82.5° (Epoch: 05 August)

Event Time Altitude Azimuth Distance (km) Brightness Sun altitude
Rises 20:21:35 0° 183° (S) 2,877 6.6 -6.6°
Reaches altitude 10° 20:23:47 10° 182° (S) 1,981 5.8 -6.9°
Maximum altitude 20:28:10 77° 97° (E) 645 3.6 -7.5°
Drops below altitude 10° 20:32:38 10° 11° (N) 2,014 6.6 -8.1°
Sets 20:34:54 0° 10° (N) 2,930 7.5 -8.4°
